Location: Unspecified
(0.0000°N, 0.0000°E)
Time: 05:09:15
(UTC+00:00)

Tiros 1 - Pass Details

Date: 10 October 2020
Orbit: 630 x 663 km, 48.4° (Epoch: 28 October)

Event Time Altitude Azimuth Distance (km) Brightness Sun altitude
Rises 08:03:38 0° 246° (WSW) 2,911 10.1 33.9°
Reaches altitude 10° 08:06:30 10° 263° (W) 2,000 9.3 34.6°
Maximum altitude 08:09:48 19° 309° (NW) 1,476 8.8 35.4°
Drops below altitude 10° 08:13:06 10° 356° (N) 1,996 9.7 36.2°
Sets 08:15:58 0° 14° (NNE) 2,903 10.6 36.9°
